TimeCST,TemperatureF,Dew PointF,Humidity,Sea Level PressureIn,VisibilityMPH,Wind Direction,Wind SpeedMPH,Gust SpeedMPH,PrecipitationIn,Events,Conditions,WindDirDegrees,DateUTC
12:20 AM,48.2,46.4,93,29.85,2.5,ESE,5.8,-,N/A,,Overcast,110,2012-12-09 06:20:00
12:41 AM,48.2,46.4,93,29.85,1.5,ESE,5.8,-,N/A,,Overcast,120,2012-12-09 06:41:00
12:53 AM,48.9,46.9,93,29.85,1.2,ESE,4.6,-,N/A,,Overcast,110,2012-12-09 06:53:00
1:01 AM,48.2,46.4,93,29.85,1.0,ESE,6.9,-,N/A,,Overcast,110,2012-12-09 07:01:00
1:10 AM,48.2,46.4,93,29.85,0.8,SE,4.6,-,N/A,,Overcast,130,2012-12-09 07:10:00
1:53 AM,48.9,48.0,97,29.83,0.2,ESE,4.6,-,N/A,Fog,Fog,110,2012-12-09 07:53:00
2:53 AM,50.0,48.0,93,29.82,0.2,ESE,3.5,-,N/A,Fog,Fog,110,2012-12-09 08:53:00
3:53 AM,48.9,48.0,97,29.82,0.2,East,5.8,-,N/A,Fog,Fog,100,2012-12-09 09:53:00
4:53 AM,48.9,48.0,97,29.82,0.2,ESE,3.5,-,N/A,Fog,Fog,120,2012-12-09 10:53:00
5:53 AM,48.9,48.0,97,29.81,0.2,East,3.5,-,0.01,Fog,Fog,100,2012-12-09 11:53:00
6:53 AM,50.0,48.0,93,29.81,0.2,ESE,3.5,-,N/A,Fog,Fog,110,2012-12-09 12:53:00
7:53 AM,50.0,48.9,96,29.80,0.2,ENE,3.5,-,0.00,Fog-Rain,Light Rain,60,2012-12-09 13:53:00
8:23 AM,50.0,48.2,94,29.82,0.2,Calm,Calm,-,0.03,Fog-Rain-Thunderstorm,Light Thunderstorms and Rain,0,2012-12-09 14:23:00
8:34 AM,50.0,48.2,94,29.81,0.2,ESE,5.8,-,0.16,Fog-Rain-Thunderstorm,Heavy Thunderstorms and Rain,110,2012-12-09 14:34:00
8:38 AM,50.0,48.2,94,29.81,0.5,Calm,Calm,-,0.17,Fog-Rain-Thunderstorm,Thunderstorms and Rain,0,2012-12-09 14:38:00
8:43 AM,50.0,48.2,94,29.82,1.2,South,6.9,-,0.18,Rain-Thunderstorm,Light Thunderstorms and Rain,170,2012-12-09 14:43:00
8:53 AM,51.1,50.0,96,29.80,1.8,SE,6.9,-,0.20,Rain-Thunderstorm,Rain,130,2012-12-09 14:53:00
8:58 AM,51.8,50.0,94,29.80,3.0,ESE,3.5,-,0.00,Rain-Thunderstorm,Light Rain,120,2012-12-09 14:58:00
9:11 AM,51.8,51.8,100,29.83,5.0,South,5.8,-,0.00,,Mostly Cloudy,170,2012-12-09 15:11:00
9:53 AM,55.0,53.1,93,29.80,10.0,SSE,5.8,-,0.01,,Mostly Cloudy,150,2012-12-09 15:53:00
10:04 AM,55.4,53.6,94,29.81,10.0,SE,5.8,-,N/A,,Mostly Cloudy,140,2012-12-09 16:04:00
10:10 AM,55.4,53.6,94,29.80,10.0,ESE,4.6,-,N/A,,Mostly Cloudy,120,2012-12-09 16:10:00
10:44 AM,55.4,53.6,94,29.81,8.0,Calm,Calm,-,N/A,,Overcast,0,2012-12-09 16:44:00
10:53 AM,55.0,53.1,93,29.80,7.0,Calm,Calm,-,N/A,,Overcast,0,2012-12-09 16:53:00
11:38 AM,55.4,53.6,94,29.78,5.0,SE,3.5,-,N/A,Thunderstorm,Overcast,140,2012-12-09 17:38:00
11:50 AM,57.2,55.4,94,29.78,4.0,NNW,5.8,-,0.00,Rain,Light Rain,330,2012-12-09 17:50:00
11:53 AM,57.0,55.0,93,29.77,4.0,Calm,Calm,-,0.00,Rain,Light Rain,0,2012-12-09 17:53:00
12:41 PM,57.2,55.4,94,29.77,2.5,WNW,3.5,-,0.00,,Overcast,300,2012-12-09 18:41:00
12:48 PM,57.2,55.4,94,29.76,3.0,Calm,Calm,-,0.00,,Overcast,0,2012-12-09 18:48:00
12:53 PM,57.9,55.0,90,29.75,3.0,Calm,Calm,-,0.00,,Overcast,0,2012-12-09 18:53:00
1:09 PM,57.2,55.4,94,29.75,2.5,NNW,5.8,-,N/A,,Overcast,330,2012-12-09 19:09:00
1:18 PM,57.2,55.4,94,29.75,4.0,NNW,6.9,-,N/A,,Overcast,340,2012-12-09 19:18:00
1:53 PM,54.0,51.1,90,29.76,5.0,NNW,11.5,-,N/A,,Overcast,340,2012-12-09 19:53:00
2:41 PM,53.6,50.0,88,29.76,2.5,NNW,9.2,-,N/A,,Overcast,340,2012-12-09 20:41:00
2:53 PM,52.0,50.0,93,29.77,3.0,NNW,10.4,18.4,N/A,,Overcast,330,2012-12-09 20:53:00
3:53 PM,50.0,46.9,89,29.80,5.0,NNW,11.5,-,N/A,,Overcast,340,2012-12-09 21:53:00
4:53 PM,48.0,45.0,89,29.82,5.0,NNW,9.2,-,N/A,,Overcast,340,2012-12-09 22:53:00
5:31 PM,46.4,44.6,93,29.84,7.0,NW,5.8,-,N/A,,Overcast,320,2012-12-09 23:31:00
5:45 PM,46.4,44.6,93,29.84,7.0,NNW,5.8,-,N/A,,Overcast,340,2012-12-09 23:45:00
5:53 PM,46.9,44.1,90,29.84,8.0,North,8.1,-,N/A,,Overcast,350,2012-12-09 23:53:00
6:53 PM,46.9,42.1,83,29.87,9.0,NNW,11.5,-,N/A,,Overcast,330,2012-12-10 00:53:00
7:53 PM,45.0,39.9,82,29.88,9.0,NNW,11.5,-,N/A,,Overcast,330,2012-12-10 01:53:00
8:32 PM,44.6,39.2,81,29.88,9.0,NNW,15.0,23.0,N/A,,Overcast,340,2012-12-10 02:32:00
8:53 PM,44.1,37.9,79,29.89,9.0,NNW,12.7,18.4,N/A,,Overcast,340,2012-12-10 02:53:00
9:38 PM,42.8,37.4,81,29.90,8.0,NNW,12.7,21.9,N/A,,Overcast,340,2012-12-10 03:38:00
9:53 PM,43.0,36.0,76,29.91,8.0,NNW,10.4,-,N/A,,Overcast,340,2012-12-10 03:53:00
10:07 PM,42.8,35.6,76,29.91,9.0,NNW,11.5,18.4,N/A,,Overcast,330,2012-12-10 04:07:00
10:28 PM,42.8,35.6,76,29.91,7.0,NNW,9.2,18.4,N/A,,Overcast,340,2012-12-10 04:28:00
10:35 PM,42.8,35.6,76,29.91,7.0,NNW,9.2,-,N/A,,Overcast,330,2012-12-10 04:35:00
10:53 PM,41.0,35.1,79,29.91,8.0,NNW,12.7,-,N/A,,Overcast,340,2012-12-10 04:53:00
11:12 PM,39.2,32.0,75,29.90,10.0,NNW,8.1,-,N/A,,Scattered Clouds,340,2012-12-10 05:12:00
11:23 PM,39.2,32.0,75,29.91,10.0,NNW,8.1,-,N/A,,Mostly Cloudy,340,2012-12-10 05:23:00
11:53 PM,39.0,32.0,76,29.91,10.0,NNW,9.2,-,N/A,,Overcast,340,2012-12-10 05:53:00